Regional Weather Roundup
Issued by NWS Spokane, WA

Home | Current Version | Previous Version | Text Only | Print | Product List | Glossary On
Versions: 1 2 3 4 5 6 7 8 9 10 11 12 13 14 15 16 17 18 19 20 21 22 23 24 25 26 27 28 29 30 31 32 33 34 35 36 37 38 39 40 41 42 43 44 45 46 47 48 49 50
671
NZUS01 KOTX 091610
RWROTX
EASTERN WASHINGTON/NORTHERN IDAHO ROUNDUP
NATIONAL WEATHER SERVICE, SPOKANE WA
800 AM PST TUE FEB 09 2016

Note: "fair" indicated few or no clouds below 12,000 feet with no
significant weather and/or obstructions to visibility.

...NORTHEAST WASHINGTON AND NORTHERN IDAHO PANHANDLE...

CITY           SKY/WX    TMP DP  RH WIND       PRES   REMARKS
SPOKANE INTL   PTCLDY    32  29  88 NE8       30.43F WCI  25
SPOKANE DOWNTO CLEAR     30  27  88 CALM      30.47S
COEUR D ALENE  CLOUDY    32  28  86 NE17      30.44S VSB 1/2 WCI  21
DEER PARK      CLEAR     30  28  92 N5        30.45F WCI  25
SANDPOINT      CLEAR     28  28 100 CALM      30.50S
BONNERS FERRY  FOG       28  27  93 CALM      30.53S VSB<1/4

...SOUTHEAST WASHINGTON AND SOUTHERN IDAHO PANHANDLE...

CITY           SKY/WX    TMP DP  RH WIND       PRES   REMARKS
WALLA WALLA    CLEAR     33  29  85 CALM      30.43S
PULLMAN/MOSCOW CLEAR     41  33  73 E14       30.42S
LEWISTON       CLEAR     42  33  70 E10       30.43F
LOWELL           N/A     34  32  92 NW5       30.55F WCI  30

...COLUMBIA BASIN...

CITY           SKY/WX    TMP DP  RH WIND       PRES   REMARKS
EPHRATA        CLEAR     32  27  81 N6        30.44F WCI  26
MOSES LAKE     CLEAR     33  29  85 N9        30.45F WCI  25
TRI CITIES     CLEAR     27  25  92 CALM      30.48F
HERMISTON      CLEAR     29  27  92 S3        30.45S
PENDLETON      FOG       28  28 100 SE3       30.41F VSB 1

...EAST SLOPES CASCADES...

CITY           SKY/WX    TMP DP  RH WIND       PRES   REMARKS
THE DALLES     CLEAR     30  27  88 CALM      30.48S
YAKIMA         CLEAR     30  26  85 CALM      30.46S
ELLENSBURG     FOG       21  18  88 S3        30.45S VSB 1/4
WENATCHEE      CLEAR     28  24  85 NW7       30.48F WCI  21
OMAK           FOG       19  18  95 CALM      30.50S VSB 1/4

...SOUTHERN BRITISH COLUMBIA...

CITY           SKY/WX    TMP DP  RH WIND       PRES   REMARKS
PENTICTON      MOCLDY    25  25 100 CALM      30.49F
CASTLEGAR      CLOUDY    27  27 100 CALM      30.54F FOG

...WESTERN MONTANA...

CITY           SKY/WX    TMP DP  RH WIND       PRES   REMARKS
MISSOULA       FOG       19  17  92 SW5       30.53S VSB 1/2 WCI  12

...NEIGHBORING CITIES...

CITY           SKY/WX    TMP DP  RH WIND       PRES   REMARKS
SEATTLE        FOG       43  42  97 SW6       30.19S VSB 1/4
CALGARY        MOCLDY    37  23  56 S7        30.18F



USA.gov is the U.S. government's official web portal to all federal, state and local government web resources and services.